Regional Weather Roundup
Issued by NWS

Home | Current Version | Previous Version | Graphics & Text | Print | Product List | Glossary On
Versions: 1 2 3 4 5 6 7 8 9 10 11 12 13 14 15 16 17 18 19 20 21 22 23 24 25 26 27 28 29 30 31 32 33 34 35 36 37 38 39 40 41 42 43 44 45 46 47 48 49 50
000
ASUS43 KBIS 020910
RWRND

NORTH DAKOTA REGIONAL WEATHER ROUNDUP
NATIONAL WEATHER SERVICE BISMARCK ND
400 AM CDT THU JUL 02 2015

NOTE: "FAIR" INDICATES FEW OR NO CLOUDS BELOW 12,000 FEET WITH NO
SIGNIFICANT WEATHER AND/OR OBSTRUCTIONS TO VISIBILITY.


NDZ001>003-009>011-017-021000-
NORTHWEST NORTH DAKOTA

CITY           SKY/WX    TMP DP  RH WIND       PRES   REMARKS
WILLISTON      CLEAR     59  55  87 SW6       29.99F
MINOT          PTCLDY    62  60  93 CALM      29.94S FOG
MINOT AFB      CLEAR     59  59 100 W5        29.93S FOG
$$

NDZ018>021-031>035-040>046-021000-
SOUTHWEST NORTH DAKOTA

CITY           SKY/WX    TMP DP  RH WIND       PRES   REMARKS
BISMARCK       CLOUDY    68  65  90 W8        29.94S THUNDER
DICKINSON      PTCLDY    60  58  92 NW7       29.99S FOG
GARRISON         N/A     62  61  96 N3        29.95S
HETTINGER ARPT CLOUDY    59  57  93 CALM      30.02S FOG
$$

NDZ004>008-012>016-024-026-027-054-021000-
NORTHEAST NORTH DAKOTA

CITY           SKY/WX    TMP DP  RH WIND       PRES   REMARKS
GRAND FORKS    CLEAR     59  56  89 S3        29.94S
GRND FRKS AFB  CLEAR     60  56  88 SW6       29.94S
DEVILS LAKE    CLOUDY    66  61  82 S7        29.92S
$$

NDZ022-023-025-028>030-036>039-047>053-021000-
SOUTHEAST NORTH DAKOTA

CITY           SKY/WX    TMP DP  RH WIND       PRES   REMARKS
FARGO          CLEAR     60  55  83 SE6       29.97S
JAMESTOWN      MOCLDY    63  60  90 S6        29.95S
$$




USA.gov is the U.S. government's official web portal to all federal, state and local government web resources and services.